[[{"header":{"parameterUnit":"m.s-1","parameterCategory":1,"la1":30.2991,"la2":30.254,"lo1":-89.0895,"lo2":-89.0444,"dy":0.0017,"dx":0.0017,"nx":28,"ny":28,"refTime":"2023-09-23T09:00:00:Z","depth":0,"parameterNumber":2,"parameterNumberName":"U-component_of_WINDS"},"data":[0,0,0,0,0,0,0,0,0,0,0,0,0,0,0,0,0,0,0,0,0,0,0,0,0,0,0,0,0,0,0,0,0,0,0,0,0,0,0,0,0,0,0,0,0,0,0,0,0,0,0,0,0,0,0,0,0,0,-1.9004,-1.9004,0,-1.9035,-1.9035,-1.9036,-1.8995,-1.8994,-1.8992,-1.8991,-1.9023,-1.9025,-1.9027,0,0,0,0,0,0,0,0,0,0,0,0,0,-1.8908,-1.891,-1.9004,-1.9004,-1.9004,-1.9035,-1.9035,-1.9036,-1.8995,-1.8994,-1.8992,-1.899,-1.9022,-1.9024,-1.9027,0,0,0,0,0,0,0,0,0,0,0,0,0,-1.8945,-1.891,-1.9003,-1.8988,-1.8987,-1.9035,-1.9035,-1.9036,-1.8996,-1.8993,-1.8991,-1.8989,-1.9021,-1.9024,-1.9028,-1.9092,0,0,-1.9038,-1.9039,0,0,0,0,0,0,0,0,-1.8943,-1.8949,-1.899,-1.8989,-1.8988,-1.9009,-1.9013,-1.9055,-1.8996,-1.8992,-1.8991,-1.8988,-1.902,-1.9023,-1.9034,-1.9094,-1.9095,-1.9038,-1.904,-1.9041,-1.9042,0,0,0,0,0,0,0,-1.8941,-1.8947,-1.9016,-1.899,-1.8989,-1.8979,-1.8982,-1.9021,-1.9018,-1.8992,-1.899,-1.8994,-1.9019,-1.9031,-1.9034,-1.9096,-1.9038,-1.9041,-1.9043,-1.9044,-1.9212,-1.9214,0,0,0,0,0,0,-1.894,-1.8945,-1.9015,-1.9017,-1.896,-1.8983,-1.8986,-1.9004,-1.9018,-1.9017,-1.8996,-1.8992,-1.9026,-1.903,-1.9035,-1.9113,-1.9041,-1.9045,-1.9047,-1.9209,-1.9212,-1.9215,0,0,0,0,0,0,-1.8938,-1.8947,-1.9014,-1.898,-1.8988,-1.8987,-1.9008,-1.9006,-1.9018,-1.902,-1.9019,-1.9009,-1.9025,-1.9031,-1.9079,-1.9114,-1.9046,-1.9049,-1.9206,-1.921,-1.9213,-1.9269,0,0,0,0,0,0,-1.8936,-1.8946,-1.8971,-1.8981,-1.899,-1.9057,-1.901,-1.9008,-1.9024,-1.9019,-1.9032,-1.9032,-1.9023,-1.9074,-1.9082,-1.9117,-1.9052,-1.9203,-1.9208,-1.9212,-1.9264,-1.9274,-1.9282,0,0,0,0,0,-1.8932,-1.8985,-1.8973,-1.8981,-1.9021,-1.9059,-1.9064,-1.9053,-1.9027,-1.9052,-1.9053,-1.9031,-1.9108,-1.9079,-1.9088,-1.9124,-1.9201,-1.9207,-1.9212,-1.926,-1.9272,-1.9282,0,0,0,0,0,0,-1.8979,-1.8986,-1.8972,-1.903,-1.9044,-1.9052,-1.9083,-1.9067,-1.9089,-1.9083,-1.9069,-1.9072,-1.9124,-1.9128,-1.9096,-1.9188,-1.915,-1.9158,-1.9183,-1.9195,-1.9204,-1.9202,-1.9055,0,0,0,0,0,-1.8996,-1.9026,-1.9031,-1.9081,-1.9089,-1.9085,-1.9101,-1.9092,-1.9106,-1.9112,-1.9116,-1.9131,-1.9158,-1.9177,-1.9202,-1.9264,-1.9266,-1.9293,-1.9302,-1.931,-1.9317,-1.9351,-1.9363,-1.9233,-1.9233,-1.9233,0,0,-1.9031,-1.9039,-1.9059,-1.9091,-1.9101,-1.9132,-1.909,-1.9126,-1.9149,-1.9117,-1.9163,-1.9167,-1.9182,-1.9238,-1.9263,-1.9244,-1.9353,-1.9317,-1.9323,-1.9326,-1.9358,-1.937,-1.9381,-1.9236,-1.9236,-1.9235,0,0,-1.9112,-1.912,-1.9164,-1.9175,-1.919,-1.9187,-1.9198,-1.9209,-1.921,-1.9256,-1.9233,-1.926,-1.9308,-1.932,-1.9332,-1.9418,-1.9399,-1.9426,-1.9475,-1.9508,-1.9519,-1.9528,-1.9559,-1.9571,-1.9433,-1.9433,-1.9433,0,-1.9154,-1.9201,-1.9188,-1.9225,-1.924,-1.9213,-1.9257,-1.9268,-1.9291,-1.9302,-1.928,-1.9339,-1.9348,-1.9406,-1.9427,-1.9438,-1.9449,-1.9425,-1.9518,-1.9527,-1.9536,-1.9566,-1.9577,-1.9436,-1.9436,-1.9436,-1.9435,0,-1.9252,-1.9285,-1.9318,-1.9342,-1.936,-1.9401,-1.9394,-1.9414,-1.9403,-1.9403,-1.945,-1.9459,-1.9486,-1.9499,-1.9488,-1.9556,-1.9544,-1.9521,-1.9482,-1.9552,-1.958,-1.9591,-1.9441,-1.944,-1.9439,-1.9438,0,0,-1.9364,-1.938,-1.9392,-1.9403,-1.9418,-1.9444,-1.9483,-1.9509,-1.9528,-1.9544,-1.9577,-1.9618,-1.9596,-1.9611,-1.9601,-1.963,-1.9698,-1.9603,-1.9603,-1.9621,-1.9775,-1.9793,-1.9807,-1.9685,-1.9687,-1.9689,-1.9774,0,-1.9445,-1.9514,-1.9503,-1.9569,-1.96,-1.9574,-1.9608,-1.9622,-1.9622,-1.9648,-1.9648,-1.9678,-1.9647,-1.9655,-1.9683,-1.9684,-1.9729,-1.9678,-1.9717,-1.9718,-1.9715,-1.9821,-1.9841,-1.992,-1.9785,-1.9787,-1.9788,0,-1.955,-1.9571,-1.9641,-1.9652,-1.9664,-1.9695,-1.9719,-1.9744,-1.9759,-1.9757,-1.9773,-1.9758,-1.9797,-1.9757,-1.9812,-1.9777,-1.9792,-1.9795,-1.9798,-1.9802,-1.9758,-1.9829,-1.9945,-1.9958,-1.9805,-1.9803,-1.9802,0,-1.9626,-1.9672,-1.9719,-1.9729,-1.9743,-1.9766,-1.9772,-1.9784,-1.9801,-1.9822,-1.9833,-1.9858,-1.9872,-1.9891,-1.9883,-1.9855,-1.994,-1.9899,-1.994,-1.994,-1.996,-1.9959,-2.0081,-1.9967,-1.9967,-1.9967,-1.9967,0,-1.9719,-1.9763,-1.9754,-1.9783,-1.9831,-1.9819,-1.9867,-1.987,-1.9882,-1.9911,-1.989,-1.9918,-1.9905,-1.9933,-1.9927,-1.9973,-1.9979,-1.9979,-1.9977,-1.9982,-1.9982,-1.9993,-1.9987,-1.997,-1.997,-1.9969,-1.9968,0,-1.9813,-1.9808,-1.9858,-1.9868,-1.9871,-1.9906,-1.9914,-1.9941,-1.994,-1.9978,-1.9986,-1.9984,-2.0015,-2.0009,-2.0043,-2.0039,-2.0098,-2.0088,-2.0093,-2.0091,-2.0133,-2.013,-2.0267,-2.0285,-2.0159,-2.016,-2.0161,0,-1.9873,-1.9906,-1.9919,-1.9937,-1.9946,-1.9976,-1.9993,-1.9982,-2.0001,-2.002,-2.0045,-2.0075,-2.0098,-2.0149,-2.015,-2.0177,-2.0168,-2.0215,-2.0172,-2.0176,-2.017,-2.0169,-2.0173,-2.0224,-2.0225,-2.0226,-2.0227,0,-1.9981,-1.9977,-2.0003,-2.0028,-2.005,-2.0069,-2.0086,-2.0102,-2.0093,-2.0115,-2.0147,-2.0165,-2.02,-2.023,-2.0254,-2.0261,-2.0243,-2.024,-2.0251,-2.0257,-2.0259,-2.026,-2.0118,-2.0237,-2.0236,-2.0236,-2.0235,-2.0235,-2.006,-2.0089,-2.0103,-2.0132,-2.0144,-2.0161,-2.0187,-2.0189,-2.0216,-2.0244,-2.0235,-2.0272,-2.0286,-2.0317,-2.0326,-2.0355,-2.0338,-2.0353,-2.0357,-2.0362,-2.0368,-2.0254,-2.0359,-2.0359,-2.0358,-2.0358,-2.0358,0,-2.0168,-2.0176,-2.0203,-2.0228,-2.0252,-2.0232,-2.025,-2.0271,-2.0304,-2.0318,-2.0341,-2.0378,-2.0407,-2.0411,-2.0438,-2.046,-2.0453,-2.0468,-2.0467,-2.0469,-2.0381,-2.0369,-2.0473,-2.0473,-2.0473,-2.0473,-2.0473,-2.0473,-2.0227,-2.0275,-2.0273,-2.0326,-2.0333,-2.0369,-2.0381,-2.0396,-2.0408,-2.045,-2.0474,-2.0476,-2.0487,-2.0515,-2.054,-2.054,-2.0552,-2.0571,-2.0568,-2.0486,-2.0475,-2.0464,-2.0453,-2.0573,-2.0573,-2.0654,-2.0654,-2.0655]},{"header":{"parameterUnit":"m.s-1","parameterCategory":1,"la1":30.2991,"la2":30.254,"lo1":-89.0895,"lo2":-89.0444,"dy":0.0017,"dx":0.0017,"nx":28,"ny":28,"refTime":"2023-09-23T09:00:00:Z","depth":0,"parameterNumber":3,"parameterNumberName":"V-component_of_WINDS"},"data":[0,0,0,0,0,0,0,0,0,0,0,0,0,0,0,0,0,0,0,0,0,0,0,0,0,0,0,0,0,0,0,0,0,0,0,0,0,0,0,0,0,0,0,0,0,0,0,0,0,0,0,0,0,0,0,0,0,0,-0.7943,-0.7944,0,-0.7972,-0.7972,-0.7973,-0.7954,-0.7953,-0.7952,-0.7951,-0.7981,-0.7982,-0.7984,0,0,0,0,0,0,0,0,0,0,0,0,0,-0.7871,-0.7872,-0.7943,-0.7944,-0.7944,-0.7972,-0.7972,-0.7973,-0.7954,-0.7953,-0.7952,-0.7951,-0.798,-0.7982,-0.7984,0,0,0,0,0,0,0,0,0,0,0,0,0,-0.7901,-0.7873,-0.7943,-0.7938,-0.7938,-0.7972,-0.7972,-0.7973,-0.7954,-0.7953,-0.7951,-0.795,-0.798,-0.7982,-0.7984,-0.8026,0,0,-0.7992,-0.7993,0,0,0,0,0,0,0,0,-0.7899,-0.7904,-0.7938,-0.7938,-0.7938,-0.7958,-0.7958,-0.7991,-0.7954,-0.7948,-0.7951,-0.7949,-0.7974,-0.7977,-0.7985,-0.8027,-0.8028,-0.7992,-0.7993,-0.7994,-0.7995,0,0,0,0,0,0,0,-0.7897,-0.7902,-0.7955,-0.7939,-0.7939,-0.7934,-0.7937,-0.7964,-0.7968,-0.7948,-0.7947,-0.7951,-0.7974,-0.7983,-0.7986,-0.8029,-0.7992,-0.7994,-0.7995,-0.7996,-0.8105,-0.8107,0,0,0,0,0,0,-0.7896,-0.7901,-0.7954,-0.7955,-0.7915,-0.7936,-0.7939,-0.7953,-0.7968,-0.7969,-0.7952,-0.795,-0.798,-0.7983,-0.7987,-0.8036,-0.7994,-0.7997,-0.7998,-0.8104,-0.8106,-0.8107,0,0,0,0,0,0,-0.7894,-0.7901,-0.7953,-0.7928,-0.7934,-0.7939,-0.7954,-0.7954,-0.7963,-0.797,-0.7971,-0.796,-0.7979,-0.7983,-0.8016,-0.8037,-0.7998,-0.8,-0.8102,-0.8104,-0.8106,-0.8136,0,0,0,0,0,0,-0.7892,-0.79,-0.7916,-0.7928,-0.7935,-0.7982,-0.7955,-0.7956,-0.7967,-0.7965,-0.7979,-0.798,-0.7978,-0.8013,-0.8018,-0.804,-0.8002,-0.81,-0.8103,-0.8106,-0.8133,-0.8139,-0.8143,0,0,0,0,0,-0.789,-0.7923,-0.7917,-0.7924,-0.7956,-0.7983,-0.7987,-0.7984,-0.7969,-0.7985,-0.799,-0.7979,-0.8033,-0.8016,-0.8023,-0.8045,-0.8099,-0.8102,-0.8105,-0.8131,-0.8137,-0.8143,0,0,0,0,0,0,-0.7914,-0.7925,-0.7918,-0.7957,-0.7969,-0.798,-0.8,-0.7992,-0.8009,-0.8006,-0.8002,-0.8005,-0.8039,-0.8045,-0.8025,-0.8085,-0.8064,-0.8069,-0.8081,-0.8087,-0.8092,-0.8091,-0.8004,0,0,0,0,0,-0.7924,-0.7945,-0.7953,-0.7987,-0.7993,-0.7995,-0.8007,-0.8004,-0.8017,-0.8022,-0.8029,-0.8041,-0.8061,-0.8074,-0.8093,-0.8133,-0.8136,-0.8151,-0.8157,-0.8161,-0.8166,-0.8187,-0.8194,-0.8118,-0.8118,-0.8118,0,0,-0.7944,-0.7953,-0.7967,-0.7992,-0.8001,-0.8023,-0.8,-0.8024,-0.8041,-0.8025,-0.8057,-0.8062,-0.8076,-0.8112,-0.8129,-0.8118,-0.8187,-0.8165,-0.8169,-0.8171,-0.8191,-0.8199,-0.8205,-0.812,-0.812,-0.8119,0,0,-0.7994,-0.8002,-0.8031,-0.804,-0.8054,-0.8055,-0.8062,-0.8074,-0.8077,-0.8108,-0.8097,-0.8116,-0.815,-0.816,-0.817,-0.8221,-0.8212,-0.8227,-0.8256,-0.8277,-0.8283,-0.8288,-0.8307,-0.8314,-0.8232,-0.8232,-0.8232,0,-0.8018,-0.8051,-0.8046,-0.8072,-0.8083,-0.807,-0.8098,-0.8108,-0.8127,-0.8135,-0.8123,-0.8165,-0.8173,-0.8212,-0.8225,-0.8233,-0.824,-0.8227,-0.8282,-0.8288,-0.8293,-0.8311,-0.8318,-0.8233,-0.8233,-0.8233,-0.8233,0,-0.808,-0.8103,-0.8124,-0.8143,-0.8156,-0.8183,-0.8183,-0.8197,-0.8192,-0.8195,-0.8226,-0.8235,-0.8256,-0.8264,-0.826,-0.8302,-0.8295,-0.8283,-0.8261,-0.8302,-0.8319,-0.8325,-0.8236,-0.8235,-0.8235,-0.8234,0,0,-0.8146,-0.8162,-0.817,-0.8178,-0.8192,-0.821,-0.8236,-0.8255,-0.8268,-0.8281,-0.8303,-0.8331,-0.8319,-0.833,-0.8327,-0.8345,-0.8386,-0.833,-0.833,-0.8341,-0.8433,-0.8444,-0.8452,-0.8379,-0.8381,-0.8382,-0.8433,0,-0.8197,-0.8243,-0.8239,-0.8282,-0.8304,-0.829,-0.8313,-0.8324,-0.8326,-0.8344,-0.8346,-0.8367,-0.835,-0.8356,-0.8374,-0.8377,-0.8405,-0.8373,-0.84,-0.8401,-0.8398,-0.8461,-0.8472,-0.852,-0.8439,-0.844,-0.8441,0,-0.8263,-0.8278,-0.8323,-0.8334,-0.8342,-0.8363,-0.838,-0.8397,-0.8409,-0.8409,-0.8421,-0.8414,-0.844,-0.8417,-0.8452,-0.8431,-0.8441,-0.8445,-0.8447,-0.845,-0.8424,-0.8467,-0.8535,-0.8542,-0.8451,-0.845,-0.845,0,-0.8308,-0.834,-0.8371,-0.8378,-0.8391,-0.8406,-0.8411,-0.8422,-0.8433,-0.8448,-0.8456,-0.8473,-0.8483,-0.8497,-0.8495,-0.8478,-0.8531,-0.8508,-0.8533,-0.8533,-0.8546,-0.8545,-0.8617,-0.8551,-0.855,-0.855,-0.855,0,-0.8365,-0.8394,-0.8391,-0.8411,-0.8442,-0.8437,-0.8468,-0.8472,-0.8481,-0.8501,-0.849,-0.8508,-0.8504,-0.8522,-0.8521,-0.855,-0.8555,-0.8556,-0.8555,-0.8558,-0.8558,-0.8565,-0.8562,-0.8552,-0.8552,-0.8551,-0.8551,0,-0.8422,-0.8421,-0.8455,-0.8463,-0.8466,-0.8489,-0.8496,-0.8514,-0.8515,-0.854,-0.8546,-0.8547,-0.8568,-0.8567,-0.8591,-0.8589,-0.8626,-0.8621,-0.8623,-0.8622,-0.8647,-0.8645,-0.8728,-0.8739,-0.8664,-0.8665,-0.8665,0,-0.8459,-0.8481,-0.8491,-0.8504,-0.8511,-0.8531,-0.8543,-0.8538,-0.8551,-0.8565,-0.8581,-0.8601,-0.8617,-0.8651,-0.8654,-0.8672,-0.8668,-0.8696,-0.8671,-0.8673,-0.867,-0.8669,-0.8671,-0.8701,-0.8702,-0.8703,-0.8703,0,-0.8526,-0.8524,-0.8542,-0.8559,-0.8574,-0.8587,-0.86,-0.861,-0.8607,-0.8622,-0.8643,-0.8655,-0.8679,-0.8699,-0.8716,-0.8721,-0.8712,-0.8711,-0.8718,-0.8721,-0.8721,-0.8722,-0.8637,-0.8709,-0.8709,-0.8708,-0.8708,-0.8708,-0.8574,-0.8593,-0.8603,-0.8623,-0.8632,-0.8643,-0.8661,-0.8664,-0.8681,-0.8701,-0.8696,-0.872,-0.873,-0.8752,-0.8759,-0.8778,-0.8768,-0.8778,-0.878,-0.8783,-0.8786,-0.8717,-0.8781,-0.878,-0.878,-0.878,-0.878,0,-0.8641,-0.8647,-0.8665,-0.8683,-0.8698,-0.8687,-0.87,-0.8714,-0.8735,-0.8745,-0.8761,-0.8785,-0.8804,-0.8808,-0.8826,-0.884,-0.8836,-0.8845,-0.8845,-0.8846,-0.8794,-0.8787,-0.8848,-0.8848,-0.8848,-0.8848,-0.8848,-0.8848,-0.8678,-0.8709,-0.8708,-0.8743,-0.8748,-0.8772,-0.878,-0.8791,-0.8799,-0.8826,-0.8842,-0.8844,-0.8852,-0.8871,-0.8887,-0.8888,-0.8896,-0.8906,-0.8906,-0.8857,-0.885,-0.8844,-0.8837,-0.8908,-0.8908,-0.8957,-0.8957,-0.8957]}]]